{"data":{"norad_id":60149,"epoch":"2026-05-24T21:24:43.863840Z","epoch_age_seconds":74407,"freshness":"FRESH","line1":"1 60149U 24120Q   26144.89217435 -.00000490  00000+0 -44342-5 0  9991","line2":"2 60149  53.1618 325.9323 0001160  85.0095 275.1038 15.30188582108127","mean_motion":15.30188582,"eccentricity":0.000116,"inclination_deg":53.1618,"raan_deg":325.9323,"arg_perigee_deg":85.0095,"mean_anomaly_deg":275.1038,"bstar":-4.4342e-6,"rev_number":10812,"period_min":94.106047904101,"perigee_km":474.45416892645,"apogee_km":476.04415451596,"semimajor_km":6853.3861617212,"source":"CELESTRAK","updated_at":"2026-05-25T13:38:19.190975Z"}}